Location: Newark
(46.7000°N, 60.6000°W)
Time: 12:31:50
(UTC+00:00)

A-11 Canister half - Pass Details

Date: 06 November 2020
Orbit: 1516 x 1684 km, 47.2° (Epoch: 04 December)

Event Time Altitude Azimuth Distance (km) Brightness Sun altitude
Rises 01:36:01 0° 278° (W) 4,935 12.2 -49.2°
Reaches altitude 10° 01:39:12 10° 278° (W) 3,939 11.5 -49.7°
Enters shadow 01:44:13 35° 279° (W) 2,470 10.2 -50.3°
